SCP
-0 0 0 0 -0 -0 -0 -0 -0 -0 -0 -0 -0 0 0 0 0 0 0 0 0 0 0 0 0 -0 -0 -0 0 0 -0 0 0 0 -0 -0 -0 -0 -0 -0 -0 -0 -0 -0 -0 0 0 0 0
0 0 0 0 0 0 0 -0 0 -0 -0 -0 0 -0 0 0 0 0 0 0 -0 0 0 0 0 0 0 -0 0 0 -0 -0 -0 -0 -0 -0 -0 -0 -0 -0 -0 -0 -0 -0 -0 0 0 0 0
0 -0 0 0 0 0 0 -0 -0 -0 -0 -0 -0 -0 -0 -0 0 0 0 -0 -0 0 0 0 0 -0 -0 -0 -0 -0 -0 -0 -0 -0 -0 -0 -0 -0 -0 -0 -0 -0 -0 -0 -0 -0 0 0 0
0 0 0 0 0 0 -0 -0 -0 -0 -0 -0 -0 0 -0 0 -0 0 -0 -0 -0 0 0 0 -0 -0 -0 -0 -0 -0 -0 -0 -0 -0 -0 -0 -0 -0 -0 -0 -0 -0 -0 -0 -0 -0 0 0 0
0 0 0 0 0 0 -0 -0 0 0 -0 -0 -0 -0 -0 0 0 -0 -0 -0 -0 0 0 -0 -0 -0 -0 -0 -0 -0 -0 -0 -0 -0 -0 -0 -0 -0 -0 -0 -0 -0 -0 -0 -0 -0 0 0 0
0 0 0 0 0 0 0 0 0 0 -0 -0 0 0 -0 -0 0 0 0 0 -0 -0 -0 0 -0 -0 -0 -0 -0 -0 -0 -0 -0 0 -0 -0 -0 -0 -0 -0 -0 -0 -0 -0 -0 0 0 0 0
0 0 0 0 0 0 0 0 0 0 0 0 0 0 -0 -0 -0 0 0 0 0 0 0 0 0 -0 -0 -0 -0 -0 -0 -0 -0 -0 0 0 0 0 -0 -0 -0 -0 0 0 0 0 0 0 0
0 0 0 0 0 0 0 0 0 0 0 0 0 0 -0 -0 0 0 0 0 0 0 0 0 0 0 0 0 0 0 0 0 0 0 0 0 0 0 0 0 0 -0 -0 0 0 0 0 0 0
0 0 0 0 0 0 0 0 0 0 0 0 0 0 0 0 0 0 0 0 0 0 0 0 0 0 0 0 0 0 0 0 0 0 0 0 0 0 0 0 0 0 0 0 0 0 0 0 0
0 0 0 0 0 0 0 0 0 0 0 0 0 0 0 0 0 0 0 0 0 0 0 0 0 0 0 0 0 0 0 0 0 0 0 0 0 0 0 0 0 0 0 0 0 0 0 0 0
0 0 0 0 0 0 0 0 0 0 0 0 0 0 0 0 0 0 0 0 0 0 0 0 0 0 0 0 0 0 0 0 0 0 0 0 0 0 0 0 0 0 0 0 0 0 0 0 0
0 0 0 0 0 0 0 0 0 0 0 0 0 0 0 0 0 0 0 0 0 0 0 0 0 0 0 0 0 0 0 0 0 0 0 0 0 0 0 0 0 0 0 0 0 0 0 0 0
0 0 0 0 0 0 0 0 0 0 0 0 0 0 0 0 0 0 0 0 0 0 0 0 0 0 0 0 0 0 0 0 0 0 0 0 0 0 0 0 0 0 0 0 0 0 0 0 0
0 0 0 0 0 0 0 0 0 0 0 0 0 0 0 0 0 0 0 0 0 0 0 0 0 0 0 0 0 0 0 0 0 0 0 0 0 0 0 0 0 0 0 0 0 0 0 0 0
0 0 0 0 0 0 0 0 0 0 0 0 0 0 0 0 0 0 0 0 0 0 0 0 0 0 0 0 0 0 0 0 0 0 0 0 0 0 0 0 0 0 0 0 0 0 0 0 0
0 0 0 0 0 0 0 0 0 0 0 0 0 0 0 -0 0 0 0 0 0 0 0 0 0 0 0 0 0 0 0 0 0 0 0 0 0 0 0 0 0 0 0 0 0 0 0 0 0
0 0 0 0 0 0 0 0 0 0 0 0 0 0 0 0 0 0 0 0 0 0 0 0 0 0 0 0 0 0 0 0 0 0 0 0 0 0 0 0 0 0 0 0 0 0 0 0 0
0 0 0 0 0 0 0 0 0 0 0 0 0 0 0 0 0 0 0 0 0 0 0 0 0 0 0 0 0 0 0 0 0 0 0 0 0 0 0 0 0 0 0 0 0 0 0 0 0
0 0 0 0 0 0 0 0 0 0 0 0 0 0 0 0 0 0 0 0 0 0 0 0 0 0 0 0 0 0 0 0 0 0 0 0 0 0 0 0 0 0 0 0 0 0 0 0 0
0 0 0 0 0 0 0 0 0 0 0 0 0 0 0 0 -0 -0 0 0 0 0 0 0 0 0 0 0 0 0 0 0 0 0 0 0 0 0 0 0 0 0 0 0 0 0 0 0 0
0 0 0 0 0 0 -0 -0 0 0 0 0 0 0 0 0 0 0 0 0 0 0 0 0 0 0 0 0 0 0 0 0 0 0 0 0 0 0 0 0 0 0 0 0 0 0 0 0 0
0 0 0 0 0 0 0 -0 -0 0 0 0 0 0 0 0 0 0 0 0 0 0 0 0 0 0 0 0 0 0 0 0 0 0 0 0 0 0 0 0 0 0 0 0 0 0 0 0 0
0 0 0 0 0 0 0 0 -0 -0 0 0 0 0 0 0 0 0 0 0 0 0 0 0 0 0 0 0 0 0 0 0 0 0 0 0 0 0 0 0 0 0 0 0 0 0 0 0 0
0 0 0 0 0 0 0 0 -0 0 0 0 0 0 0 0 0 0 0 0 0 0 0 0 0 0 0 0 0 0 0 0 0 0 0 0 0 0 0 0 0 0 0 0 0 0 0 0 0
0 0 0 0 0 0 0 0 0 0 0 0 0 0 0 0 0 0 0 0 0 0 0 0 0 0 0 0 0 0 0 0 0 0 0 0 0 0 0 0 0 0 0 0 0 0 0 0 0
0 0 0 0 0 0 0 0 0 0 0 0 0 0 0 0 0 0 0 0 0 0 0 0 0 0 0 0 0 0 0 0 0 0 0 0 0 0 0 0 0 0 0 0 0 0 0 0 0
0 0 0 0 0 0 0 0 0 0 0 0 0 0 0 0 0 0 0 0 0 0 0 0 0 0 0 0 0 0 0 0 0 0 0 0 0 0 0 0 0 0 0 0 0 0 0 0 0
0 0 0 0 0 0 0 0 0 0 0 -0 0 0 0 0 0 0 0 0 0 0 0 0 0 0 0 0 0 0 0 0 0 0 0 0 0 0 0 0 0 0 0 0 0 0 0 0 0
0 0 0 0 0 0 0 0 0 0 0 0 0 0 0 0 0 0 0 0 0 0 0 0 0 0 0 0 0 0 0 0 0 0 0 0 0 0 0 0 0 0 0 0 0 0 0 0 0
0 0 0 0 0 0 0 0 0 0 0 0 0 0 0 0 0 0 0 0 0 0 0 0 0 0 0 0 0 0 0 0 0 0 0 0 0 0 0 0 0 0 0 0 0 0 0 0 0
Wind_Speed_500mb
41 38 20 8 9 10 3 4 4 3 5 8 15 25 16 8 3 5 26 34 22 36 35 31 23 19 18 15 14 18 21 24 33 31 33 18 21 25 25 27 30 33 34 35 37 37 36 33 33
45 34 11 6 9 7 5 2 10 4 7 12 25 18 10 3 4 16 38 29 20 35 36 32 26 20 20 16 13 15 21 23 26 30 32 24 16 18 25 26 29 33 34 35 36 34 31 30 32
37 21 10 7 7 7 7 5 10 6 11 4 9 13 9 6 10 34 22 32 30 35 36 32 27 22 19 18 15 14 18 21 27 31 33 30 18 20 27 26 29 32 32 33 33 31 28 27 27
33 11 8 9 8 4 13 11 14 11 8 6 14 13 10 6 16 23 23 33 27 35 36 34 29 24 20 18 16 17 19 20 21 24 32 29 28 23 20 24 27 28 30 32 32 30 27 25 25
21 8 9 5 3 1 4 21 25 9 10 7 6 8 8 15 10 19 27 31 31 33 37 33 30 25 22 20 17 16 18 21 20 21 27 29 24 28 22 21 20 25 29 29 29 27 24 23 20
13 6 8 5 7 4 3 19 16 13 17 14 13 11 6 13 17 25 34 32 28 31 37 37 33 28 23 23 22 19 18 20 17 17 19 25 24 28 24 19 19 22 27 27 27 26 23 22 21
6 6 4 4 6 4 5 8 17 12 13 5 15 8 11 16 19 38 37 32 29 33 34 37 37 33 30 27 25 22 21 20 19 19 18 23 25 29 29 24 23 24 23 25 24 24 23 21 20
3 7 4 2 4 7 5 7 13 14 4 10 6 10 10 28 34 44 40 34 31 31 33 36 40 39 37 34 31 27 23 22 21 19 19 20 26 27 32 28 24 26 24 23 22 22 22 20 19
5 7 4 6 5 11 4 1 4 12 15 8 7 6 6 24 36 49 45 41 39 39 38 38 44 44 41 37 36 33 29 26 25 23 22 23 25 25 29 28 27 25 30 26 24 22 22 21 20
7 8 18 10 2 5 4 4 6 5 9 6 5 7 15 24 33 44 48 46 46 43 42 40 45 47 45 43 41 39 37 34 31 30 28 27 27 28 28 28 28 30 27 30 27 24 23 23 23
9 10 8 6 9 8 10 1 6 12 3 9 9 9 16 22 29 37 40 40 37 36 39 41 43 49 49 49 48 47 45 41 39 36 33 31 33 35 35 34 33 31 31 30 31 29 27 25 25
5 10 8 1 7 5 6 9 7 11 11 4 6 1 12 27 31 34 40 40 38 42 41 40 44 46 49 50 52 52 52 49 46 43 38 39 38 41 41 39 36 33 30 34 34 33 32 31 29
5 8 11 17 18 14 12 16 16 24 21 14 15 14 19 24 26 29 34 38 39 40 42 44 47 49 52 51 51 52 55 56 52 49 46 43 45 46 45 43 41 39 37 39 39 38 38 36 34
3 10 4 4 8 8 8 13 7 25 28 33 34 33 29 36 39 40 41 43 46 43 43 45 48 51 57 57 55 56 55 54 58 57 53 49 51 52 51 49 46 46 44 43 43 43 41 40 39
5 5 8 6 6 6 4 15 15 54 35 44 49 51 52 48 44 47 50 51 51 52 47 47 46 50 55 61 62 62 62 59 59 60 58 54 57 57 57 54 52 48 47 46 47 48 48 47 46
5 8 3 8 9 13 14 19 14 32 25 34 40 45 46 55 64 64 53 55 56 54 57 52 50 53 54 57 62 66 67 65 63 62 63 60 60 62 61 60 58 52 51 51 53 52 53 53 50
3 6 14 13 15 9 16 6 24 33 39 40 33 34 38 40 40 55 61 62 63 65 59 61 58 58 58 59 61 67 70 70 68 67 68 66 64 65 66 65 64 59 58 60 58 57 56 56 53
13 7 8 12 7 12 14 17 18 34 39 39 45 47 51 53 50 41 35 46 43 58 61 58 60 60 60 64 66 67 72 72 74 74 73 72 70 70 69 70 70 66 67 67 64 63 59 60 55
11 8 13 7 12 5 16 19 23 46 47 51 47 52 65 69 63 59 53 49 46 44 51 59 60 61 64 70 74 78 77 76 80 81 80 77 75 77 76 75 75 73 75 74 70 67 66 67 60
18 7 7 13 14 3 15 24 21 26 25 47 55 64 80 84 86 79 73 69 64 57 59 58 66 67 66 68 70 75 76 76 80 84 86 82 83 84 83 81 81 80 80 82 81 77 76 74 68
14 24 8 12 12 7 13 24 13 15 26 39 53 62 64 73 78 80 77 73 69 60 54 56 57 70 72 68 75 78 82 83 82 85 88 89 91 90 90 88 87 87 86 89 88 85 85 85 79
30 11 14 13 3 8 8 14 10 11 20 19 56 60 61 69 63 55 46 36 43 55 63 69 64 58 67 72 81 85 82 83 79 78 82 86 91 94 97 94 91 92 94 94 94 93 93 89 92
12 11 20 15 5 8 3 9 11 7 11 21 30 36 44 52 43 52 44 45 41 36 34 38 44 54 62 79 86 86 91 89 85 87 84 83 88 91 93 99 99 98 99 101 99 101 102 100 98
10 8 5 8 3 15 16 12 8 10 11 10 25 20 4 5 16 17 12 12 12 9 16 25 29 34 42 53 68 87 92 86 90 90 91 86 86 90 93 95 95 98 104 106 105 104 109 107 105
17 15 2 3 8 15 6 16 27 7 24 15 19 19 13 8 20 28 27 19 15 9 4 0 5 11 31 44 55 66 80 92 94 93 95 95 96 94 90 90 94 95 98 105 107 108 110 114 113
16 22 10 15 9 7 8 16 13 22 36 51 50 46 24 22 33 25 19 18 16 15 9 9 12 15 18 22 38 54 58 68 82 92 96 101 103 102 96 94 92 89 85 92 102 107 108 109 115
12 22 16 6 4 2 9 14 17 21 22 33 21 18 31 36 28 22 15 15 17 18 18 19 22 25 28 29 29 33 49 62 68 74 80 87 93 100 99 97 94 91 84 82 86 98 103 102 99
16 17 13 3 11 11 11 11 19 10 10 17 11 27 29 32 22 21 17 11 13 19 25 28 31 35 39 38 34 34 35 43 59 68 77 84 86 92 94 93 95 92 87 80 83 91 91 99 96
11 12 10 9 10 10 3 11 15 25 21 17 18 28 39 24 19 17 10 9 17 24 30 34 35 36 38 41 42 45 45 44 47 56 70 81 81 83 88 87 90 92 86 83 84 88 89 97 100
26 32 30 14 13 7 3 14 5 8 9 18 26 31 28 22 17 8 6 16 25 32 37 38 38 40 40 43 45 45 47 49 50 53 56 64 75 81 80 79 81 84 84 81 82 84 87 95 99
Wind_Direction_500mb
343 343 345 41 57 66 45 57 100 106 45 96 77 97 110 64 95 192 141 163 171 172 166 166 162 155 148 144 138 135 135 141 139 129 117 121 119 118 120 120 113 112 111 110 109 109 108 98 87
344 343 11 54 84 77 311 33 101 140 129 98 103 109 71 109 112 153 154 166 187 178 169 169 167 161 153 149 146 141 138 145 147 137 127 127 129 123 125 123 119 118 117 114 114 114 109 98 91
344 2 18 75 110 146 152 196 153 132 104 91 106 97 100 116 151 160 179 176 182 183 174 173 170 165 163 160 156 148 145 150 145 136 137 136 138 134 131 129 129 123 122 121 121 120 114 106 102
340 8 51 81 93 5 151 181 159 127 106 86 112 72 88 140 153 181 168 172 184 182 179 175 173 167 167 169 167 163 159 160 154 158 145 150 165 131 131 135 135 129 129 128 128 127 122 115 113
349 23 44 51 60 145 143 167 151 140 140 118 140 154 98 155 176 203 183 178 182 182 180 180 178 178 174 176 178 176 170 163 159 159 161 158 159 151 147 150 143 137 138 137 136 134 131 125 120
3 32 56 43 322 286 251 163 157 151 153 140 109 113 149 157 180 189 186 188 181 183 180 184 184 185 187 186 186 186 178 168 166 169 175 168 162 158 164 166 158 151 147 147 145 144 141 137 132
71 65 196 147 274 250 224 135 151 151 148 135 136 104 160 172 172 179 190 200 193 187 186 189 193 194 194 195 198 197 184 182 184 184 184 186 176 171 172 180 171 166 158 156 155 154 153 151 151
74 89 316 265 185 284 249 134 127 137 138 120 142 172 197 178 168 181 192 203 209 206 202 200 201 203 201 200 200 204 201 194 196 196 194 201 197 187 189 183 181 176 171 169 166 164 165 167 169
165 78 230 257 47 289 259 72 101 111 129 138 144 164 202 167 167 183 190 202 211 216 215 212 209 209 210 209 207 207 212 210 200 200 206 207 213 210 207 207 205 191 185 185 182 180 178 181 185
153 149 209 192 136 333 225 176 168 135 138 152 145 148 164 178 180 188 196 206 213 216 216 220 215 214 216 216 215 215 217 218 215 211 214 216 219 221 221 220 218 211 203 194 195 194 193 195 197
179 208 215 136 52 11 344 356 323 148 229 194 182 195 198 200 200 204 207 216 225 229 228 224 220 220 223 223 221 221 223 224 223 222 221 224 223 224 225 226 227 223 215 205 205 207 208 209 211
180 225 231 274 14 319 268 292 300 232 220 174 206 230 219 217 219 219 221 223 226 232 235 233 229 227 228 231 230 228 228 227 228 230 228 229 229 229 229 230 230 230 224 221 216 216 217 220 221
197 251 263 278 280 299 253 240 249 253 237 238 259 260 240 231 242 243 240 235 234 238 241 241 237 237 235 235 236 238 234 234 234 235 235 235 238 236 235 233 231 231 229 227 226 224 226 228 230
189 253 263 282 296 282 251 245 215 255 258 257 256 265 262 250 260 257 243 244 239 246 247 244 243 244 241 242 243 246 245 242 240 239 240 240 243 241 240 239 237 236 235 233 233 233 233 236 236
212 281 347 217 182 281 309 296 209 267 269 275 276 269 264 261 257 256 253 251 255 257 257 249 250 247 247 248 248 247 250 250 247 244 243 242 242 244 244 245 244 244 242 239 237 235 233 235 236
120 68 313 283 194 235 180 252 259 270 272 271 276 279 275 266 261 258 257 258 260 259 253 253 250 251 250 250 254 251 251 250 251 250 247 244 243 244 246 248 248 247 245 242 241 239 238 239 241
310 193 225 308 240 235 187 268 240 260 262 256 259 278 281 285 273 261 256 253 260 256 256 255 251 251 257 255 253 254 254 253 252 254 252 250 247 247 247 249 252 250 248 244 243 243 243 245 247
203 188 223 215 266 192 242 262 268 255 259 262 272 280 286 283 272 261 266 253 253 252 256 256 252 254 257 257 253 252 253 254 254 253 253 252 252 253 250 251 252 251 250 247 245 246 245 250 251
156 188 230 266 240 260 257 257 259 258 258 262 265 271 275 273 265 264 263 263 266 258 256 253 250 254 251 249 250 248 252 252 251 252 252 252 252 253 253 253 254 252 250 251 251 251 249 248 247
232 211 255 286 283 260 282 279 252 251 246 259 268 273 271 270 268 265 264 266 264 264 263 258 255 256 255 254 257 258 261 260 260 258 256 257 255 253 252 252 254 254 251 250 251 249 250 250 246
233 225 192 237 319 290 314 283 223 243 252 266 264 263 274 269 269 271 268 262 257 257 262 264 262 257 258 261 257 253 253 255 258 259 259 256 255 256 256 254 254 255 253 252 253 252 250 251 250
229 196 219 247 249 252 29 289 246 242 270 265 270 274 274 271 269 275 274 269 263 259 259 259 260 262 260 260 259 258 260 261 270 272 269 264 261 258 258 256 255 256 256 253 254 255 253 250 252
219 168 206 222 191 349 185 279 273 277 263 260 263 268 284 262 270 268 276 273 281 280 272 270 267 264 260 256 258 262 261 265 270 268 269 268 267 265 262 261 258 255 255 256 255 256 254 252 251
158 126 115 59 110 254 224 190 235 230 222 248 263 244 19 67 246 244 220 160 159 199 241 253 259 261 256 254 259 261 264 268 266 267 269 272 271 269 268 265 263 261 257 257 258 257 258 257 255
209 145 137 293 211 238 246 196 251 262 261 233 265 234 310 171 136 127 122 99 97 106 134 281 340 305 268 264 261 260 263 264 267 271 271 272 272 272 275 275 271 266 264 261 260 258 257 259 258
199 186 163 200 204 235 145 225 252 236 257 259 269 266 261 161 139 125 103 66 46 34 15 340 322 314 301 302 277 268 265 264 267 269 271 272 274 275 278 279 279 276 271 269 264 262 261 260 260
177 200 178 118 350 114 222 284 292 255 257 264 270 185 174 160 137 107 84 50 27 7 357 334 314 306 305 302 292 283 272 267 265 266 270 272 275 275 277 279 280 279 277 272 268 265 263 264 264
188 159 178 209 180 235 257 264 239 309 262 254 252 203 191 158 131 107 89 48 11 350 338 324 314 308 298 294 287 279 281 277 272 269 267 270 274 275 275 277 278 278 278 277 271 266 267 264 265
164 201 209 167 166 196 242 255 216 235 253 242 251 221 167 144 107 106 84 19 348 333 325 321 310 302 297 292 288 285 277 279 280 277 273 271 270 270 272 274 276 277 277 277 274 270 269 265 265
212 212 200 203 218 224 181 257 281 183 70 91 106 126 120 129 130 106 22 341 334 335 329 320 310 302 297 293 291 290 288 283 282 281 279 276 272 268 269 271 273 274 276 276 274 274 273 268 267
Wind_Speed_850mb
41 38 20 8 9 10 3 4 4 3 5 8 15 25 16 8 3 5 26 34 22 36 35 31 23 19 18 15 14 18 21 24 33 31 33 18 21 25 25 27 30 33 34 35 37 37 36 33 33
45 34 11 6 9 7 5 2 10 4 7 12 25 18 10 3 4 16 38 29 20 35 36 32 26 20 20 16 13 15 21 23 26 30 32 24 16 18 25 26 29 33 34 35 36 34 31 30 32
37 21 10 7 7 7 7 5 10 6 11 4 9 13 9 6 10 34 22 32 30 35 36 32 27 22 19 18 15 14 18 21 27 31 33 30 18 20 27 26 29 32 32 33 33 31 28 27 27
33 11 8 9 8 4 13 11 14 11 8 6 14 13 10 6 16 23 23 33 27 35 36 34 29 24 20 18 16 17 19 20 21 24 32 29 28 23 20 24 27 28 30 32 32 30 27 25 25
21 8 9 5 3 1 4 21 25 9 10 7 6 8 8 15 10 19 27 31 31 33 37 33 30 25 22 20 17 16 18 21 20 21 27 29 24 28 22 21 20 25 29 29 29 27 24 23 20
13 6 8 5 7 4 3 19 16 13 17 14 13 11 6 13 17 25 34 32 28 31 37 37 33 28 23 23 22 19 18 20 17 17 19 25 24 28 24 19 19 22 27 27 27 26 23 22 21
6 6 4 4 6 4 5 8 17 12 13 5 15 8 11 16 19 38 37 32 29 33 34 37 37 33 30 27 25 22 21 20 19 19 18 23 25 29 29 24 23 24 23 25 24 24 23 21 20
3 7 4 2 4 7 5 7 13 14 4 10 6 10 10 28 34 44 40 34 31 31 33 36 40 39 37 34 31 27 23 22 21 19 19 20 26 27 32 28 24 26 24 23 22 22 22 20 19
5 7 4 6 5 11 4 1 4 12 15 8 7 6 6 24 36 49 45 41 39 39 38 38 44 44 41 37 36 33 29 26 25 23 22 23 25 25 29 28 27 25 30 26 24 22 22 21 20
7 8 18 10 2 5 4 4 6 5 9 6 5 7 15 24 33 44 48 46 46 43 42 40 45 47 45 43 41 39 37 34 31 30 28 27 27 28 28 28 28 30 27 30 27 24 23 23 23
9 10 8 6 9 8 10 1 6 12 3 9 9 9 16 22 29 37 40 40 37 36 39 41 43 49 49 49 48 47 45 41 39 36 33 31 33 35 35 34 33 31 31 30 31 29 27 25 25
5 10 8 1 7 5 6 9 7 11 11 4 6 1 12 27 31 34 40 40 38 42 41 40 44 46 49 50 52 52 52 49 46 43 38 39 38 41 41 39 36 33 30 34 34 33 32 31 29
5 8 11 17 18 14 12 16 16 24 21 14 15 14 19 24 26 29 34 38 39 40 42 44 47 49 52 51 51 52 55 56 52 49 46 43 45 46 45 43 41 39 37 39 39 38 38 36 34
3 10 4 4 8 8 8 13 7 25 28 33 34 33 29 36 39 40 41 43 46 43 43 45 48 51 57 57 55 56 55 54 58 57 53 49 51 52 51 49 46 46 44 43 43 43 41 40 39
5 5 8 6 6 6 4 15 15 54 35 44 49 51 52 48 44 47 50 51 51 52 47 47 46 50 55 61 62 62 62 59 59 60 58 54 57 57 57 54 52 48 47 46 47 48 48 47 46
5 8 3 8 9 13 14 19 14 32 25 34 40 45 46 55 64 64 53 55 56 54 57 52 50 53 54 57 62 66 67 65 63 62 63 60 60 62 61 60 58 52 51 51 53 52 53 53 50
3 6 14 13 15 9 16 6 24 33 39 40 33 34 38 40 40 55 61 62 63 65 59 61 58 58 58 59 61 67 70 70 68 67 68 66 64 65 66 65 64 59 58 60 58 57 56 56 53
13 7 8 12 7 12 14 17 18 34 39 39 45 47 51 53 50 41 35 46 43 58 61 58 60 60 60 64 66 67 72 72 74 74 73 72 70 70 69 70 70 66 67 67 64 63 59 60 55
11 8 13 7 12 5 16 19 23 46 47 51 47 52 65 69 63 59 53 49 46 44 51 59 60 61 64 70 74 78 77 76 80 81 80 77 75 77 76 75 75 73 75 74 70 67 66 67 60
18 7 7 13 14 3 15 24 21 26 25 47 55 64 80 84 86 79 73 69 64 57 59 58 66 67 66 68 70 75 76 76 80 84 86 82 83 84 83 81 81 80 80 82 81 77 76 74 68
14 24 8 12 12 7 13 24 13 15 26 39 53 62 64 73 78 80 77 73 69 60 54 56 57 70 72 68 75 78 82 83 82 85 88 89 91 90 90 88 87 87 86 89 88 85 85 85 79
30 11 14 13 3 8 8 14 10 11 20 19 56 60 61 69 63 55 46 36 43 55 63 69 64 58 67 72 81 85 82 83 79 78 82 86 91 94 97 94 91 92 94 94 94 93 93 89 92
12 11 20 15 5 8 3 9 11 7 11 21 30 36 44 52 43 52 44 45 41 36 34 38 44 54 62 79 86 86 91 89 85 87 84 83 88 91 93 99 99 98 99 101 99 101 102 100 98
10 8 5 8 3 15 16 12 8 10 11 10 25 20 4 5 16 17 12 12 12 9 16 25 29 34 42 53 68 87 92 86 90 90 91 86 86 90 93 95 95 98 104 106 105 104 109 107 105
17 15 2 3 8 15 6 16 27 7 24 15 19 19 13 8 20 28 27 19 15 9 4 0 5 11 31 44 55 66 80 92 94 93 95 95 96 94 90 90 94 95 98 105 107 108 110 114 113
16 22 10 15 9 7 8 16 13 22 36 51 50 46 24 22 33 25 19 18 16 15 9 9 12 15 18 22 38 54 58 68 82 92 96 101 103 102 96 94 92 89 85 92 102 107 108 109 115
12 22 16 6 4 2 9 14 17 21 22 33 21 18 31 36 28 22 15 15 17 18 18 19 22 25 28 29 29 33 49 62 68 74 80 87 93 100 99 97 94 91 84 82 86 98 103 102 99
16 17 13 3 11 11 11 11 19 10 10 17 11 27 29 32 22 21 17 11 13 19 25 28 31 35 39 38 34 34 35 43 59 68 77 84 86 92 94 93 95 92 87 80 83 91 91 99 96
11 12 10 9 10 10 3 11 15 25 21 17 18 28 39 24 19 17 10 9 17 24 30 34 35 36 38 41 42 45 45 44 47 56 70 81 81 83 88 87 90 92 86 83 84 88 89 97 100
26 32 30 14 13 7 3 14 5 8 9 18 26 31 28 22 17 8 6 16 25 32 37 38 38 40 40 43 45 45 47 49 50 53 56 64 75 81 80 79 81 84 84 81 82 84 87 95 99
Wind_Direction_850mb
343 343 345 41 57 66 45 57 100 106 45 96 77 97 110 64 95 192 141 163 171 172 166 166 162 155 148 144 138 135 135 141 139 129 117 121 119 118 120 120 113 112 111 110 109 109 108 98 87
344 343 11 54 84 77 311 33 101 140 129 98 103 109 71 109 112 153 154 166 187 178 169 169 167 161 153 149 146 141 138 145 147 137 127 127 129 123 125 123 119 118 117 114 114 114 109 98 91
344 2 18 75 110 146 152 196 153 132 104 91 106 97 100 116 151 160 179 176 182 183 174 173 170 165 163 160 156 148 145 150 145 136 137 136 138 134 131 129 129 123 122 121 121 120 114 106 102
340 8 51 81 93 5 151 181 159 127 106 86 112 72 88 140 153 181 168 172 184 182 179 175 173 167 167 169 167 163 159 160 154 158 145 150 165 131 131 135 135 129 129 128 128 127 122 115 113
349 23 44 51 60 145 143 167 151 140 140 118 140 154 98 155 176 203 183 178 182 182 180 180 178 178 174 176 178 176 170 163 159 159 161 158 159 151 147 150 143 137 138 137 136 134 131 125 120
3 32 56 43 322 286 251 163 157 151 153 140 109 113 149 157 180 189 186 188 181 183 180 184 184 185 187 186 186 186 178 168 166 169 175 168 162 158 164 166 158 151 147 147 145 144 141 137 132
71 65 196 147 274 250 224 135 151 151 148 135 136 104 160 172 172 179 190 200 193 187 186 189 193 194 194 195 198 197 184 182 184 184 184 186 176 171 172 180 171 166 158 156 155 154 153 151 151
74 89 316 265 185 284 249 134 127 137 138 120 142 172 197 178 168 181 192 203 209 206 202 200 201 203 201 200 200 204 201 194 196 196 194 201 197 187 189 183 181 176 171 169 166 164 165 167 169
165 78 230 257 47 289 259 72 101 111 129 138 144 164 202 167 167 183 190 202 211 216 215 212 209 209 210 209 207 207 212 210 200 200 206 207 213 210 207 207 205 191 185 185 182 180 178 181 185
153 149 209 192 136 333 225 176 168 135 138 152 145 148 164 178 180 188 196 206 213 216 216 220 215 214 216 216 215 215 217 218 215 211 214 216 219 221 221 220 218 211 203 194 195 194 193 195 197
179 208 215 136 52 11 344 356 323 148 229 194 182 195 198 200 200 204 207 216 225 229 228 224 220 220 223 223 221 221 223 224 223 222 221 224 223 224 225 226 227 223 215 205 205 207 208 209 211
180 225 231 274 14 319 268 292 300 232 220 174 206 230 219 217 219 219 221 223 226 232 235 233 229 227 228 231 230 228 228 227 228 230 228 229 229 229 229 230 230 230 224 221 216 216 217 220 221
197 251 263 278 280 299 253 240 249 253 237 238 259 260 240 231 242 243 240 235 234 238 241 241 237 237 235 235 236 238 234 234 234 235 235 235 238 236 235 233 231 231 229 227 226 224 226 228 230
189 253 263 282 296 282 251 245 215 255 258 257 256 265 262 250 260 257 243 244 239 246 247 244 243 244 241 242 243 246 245 242 240 239 240 240 243 241 240 239 237 236 235 233 233 233 233 236 236
212 281 347 217 182 281 309 296 209 267 269 275 276 269 264 261 257 256 253 251 255 257 257 249 250 247 247 248 248 247 250 250 247 244 243 242 242 244 244 245 244 244 242 239 237 235 233 235 236
120 68 313 283 194 235 180 252 259 270 272 271 276 279 275 266 261 258 257 258 260 259 253 253 250 251 250 250 254 251 251 250 251 250 247 244 243 244 246 248 248 247 245 242 241 239 238 239 241
310 193 225 308 240 235 187 268 240 260 262 256 259 278 281 285 273 261 256 253 260 256 256 255 251 251 257 255 253 254 254 253 252 254 252 250 247 247 247 249 252 250 248 244 243 243 243 245 247
203 188 223 215 266 192 242 262 268 255 259 262 272 280 286 283 272 261 266 253 253 252 256 256 252 254 257 257 253 252 253 254 254 253 253 252 252 253 250 251 252 251 250 247 245 246 245 250 251
156 188 230 266 240 260 257 257 259 258 258 262 265 271 275 273 265 264 263 263 266 258 256 253 250 254 251 249 250 248 252 252 251 252 252 252 252 253 253 253 254 252 250 251 251 251 249 248 247
232 211 255 286 283 260 282 279 252 251 246 259 268 273 271 270 268 265 264 266 264 264 263 258 255 256 255 254 257 258 261 260 260 258 256 257 255 253 252 252 254 254 251 250 251 249 250 250 246
233 225 192 237 319 290 314 283 223 243 252 266 264 263 274 269 269 271 268 262 257 257 262 264 262 257 258 261 257 253 253 255 258 259 259 256 255 256 256 254 254 255 253 252 253 252 250 251 250
229 196 219 247 249 252 29 289 246 242 270 265 270 274 274 271 269 275 274 269 263 259 259 259 260 262 260 260 259 258 260 261 270 272 269 264 261 258 258 256 255 256 256 253 254 255 253 250 252
219 168 206 222 191 349 185 279 273 277 263 260 263 268 284 262 270 268 276 273 281 280 272 270 267 264 260 256 258 262 261 265 270 268 269 268 267 265 262 261 258 255 255 256 255 256 254 252 251
158 126 115 59 110 254 224 190 235 230 222 248 263 244 19 67 246 244 220 160 159 199 241 253 259 261 256 254 259 261 264 268 266 267 269 272 271 269 268 265 263 261 257 257 258 257 258 257 255
209 145 137 293 211 238 246 196 251 262 261 233 265 234 310 171 136 127 122 99 97 106 134 281 340 305 268 264 261 260 263 264 267 271 271 272 272 272 275 275 271 266 264 261 260 258 257 259 258
199 186 163 200 204 235 145 225 252 236 257 259 269 266 261 161 139 125 103 66 46 34 15 340 322 314 301 302 277 268 265 264 267 269 271 272 274 275 278 279 279 276 271 269 264 262 261 260 260
177 200 178 118 350 114 222 284 292 255 257 264 270 185 174 160 137 107 84 50 27 7 357 334 314 306 305 302 292 283 272 267 265 266 270 272 275 275 277 279 280 279 277 272 268 265 263 264 264
188 159 178 209 180 235 257 264 239 309 262 254 252 203 191 158 131 107 89 48 11 350 338 324 314 308 298 294 287 279 281 277 272 269 267 270 274 275 275 277 278 278 278 277 271 266 267 264 265
164 201 209 167 166 196 242 255 216 235 253 242 251 221 167 144 107 106 84 19 348 333 325 321 310 302 297 292 288 285 277 279 280 277 273 271 270 270 272 274 276 277 277 277 274 270 269 265 265
212 212 200 203 218 224 181 257 281 183 70 91 106 126 120 129 130 106 22 341 334 335 329 320 310 302 297 293 291 290 288 283 282 281 279 276 272 268 269 271 273 274 276 276 274 274 273 268 267